Location: Doux
(49.5045°N, 4.4321°E)
Time: 13:05:40
(UTC+00:00)

EXPRESS MD2 - Pass Details

Date: 23 May 2024
Orbit: 262 x 3333 km, 49.9° (Epoch: 16 June)

Event Time Altitude Azimuth Distance (km) Brightness Sun altitude
Exits shadow 01:24:20 21° 142° (SE) 925 4.2 -16.1°
Maximum altitude 01:24:27 21° 138° (SE) 932 4.3 -16.0°
Drops below altitude 10° 01:27:20 10° 87° (E) 1,762 6.3 -15.8°
Sets 01:30:37 0° 73° (ENE) 3,122 7.9 -15.6°
